1485342000.14,8308,10.38,73510.3,1.37,-28.85,-27.89,0,*48
1485342001.41,8309,10.38,73510.0,1.37,-28.21,-27.35,0,*40
1485342002.68,8310,10.38,73506.3,1.37,-28.47,-27.35,0,*48
1485342003.91,8311,10.38,73510.8,1.37,-28.15,-27.29,0,*43
1485342005.15,8312,10.38,73508.0,1.37,-28.31,-27.45,0,*4C
1485342006.4,8313,10.38,73510.3,1.37,-28.21,-27.29,0,*46
1485342007.63,8314,10.38,73510.5,1.39,-28.63,-27.71,0,*44
1485342008.88,8315,10.38,73508.0,1.39,-28.63,-27.61,0,*44
1485342010.11,8316,10.38,73508.5,1.39,-28.53,-27.61,0,*44
1485342011.37,8317,10.38,73508.3,1.43,-28.09,-27.29,0,*4B
1485342012.6,8318,10.38,73512.0,1.39,-28.21,-27.29,0,*43
1485342013.83,8319,10.38,73506.0,1.39,-27.99,-27.03,0,*46
1485342015.06,8320,10.38,73508.5,1.39,-28.53,-27.83,0,*4D
1485342016.26,8321,10.38,73508.5,1.39,-29.57,-28.69,0,*42
1485342017.49,8322,10.38,73508.3,1.39,-29.23,-28.47,0,*4E
1485342018.73,8323,10.38,73508.3,1.37,-28.31,-27.45,0,*4E
1485342019.97,8324,10.38,73510.5,1.37,-28.15,-27.35,0,*48
1485342021.22,8325,10.38,73510.3,1.37,-27.99,-27.03,0,*47
1485342022.47,8326,10.38,73508.8,1.37,-27.89,-26.97,0,*49
1485342023.72,8327,10.38,73510.5,1.37,-27.71,-26.81,0,*48
1485342024.97,8328,10.38,73508.3,1.37,-27.67,-26.81,0,*40
1485342026.19,8329,10.38,73508.5,1.39,-27.51,-26.55,0,*43
1485342027.44,8330,10.38,73508.5,1.43,-27.83,-27.07,0,*4F
1485342028.66,8331,10.38,73508.5,1.39,-27.71,-26.81,0,*41
1485342029.91,8332,10.38,73510.0,1.43,-27.77,-26.93,0,*4A
1485342031.17,8333,10.38,73506.8,1.43,-27.67,-26.77,0,*40
1485342032.42,8334,10.38,73508.0,1.43,-27.45,-26.65,0,*44
1485342033.64,8335,10.38,73510.3,1.43,-27.93,-27.07,0,*4B
1485342034.92,8336,10.38,73512.3,1.43,-28.63,-27.99,0,*4F
1485342036.15,8337,10.38,73508.8,1.43,-28.15,-27.29,0,*44
1485342037.4,8338,10.38,73508.0,1.43,-27.77,-26.81,0,*43
1485342038.63,8339,10.38,73510.3,1.45,-27.77,-26.77,0,*4D
1485342039.85,8340,10.38,73510.3,1.45,-27.93,-26.93,0,*43
1485342041.08,8341,10.38,73508.0,1.45,-28.15,-27.39,0,*42
1485342042.33,8342,10.38,73508.8,1.45,-29.29,-28.47,0,*49
1485342043.56,8343,10.38,73510.0,1.45,-28.09,-27.29,0,*4C
1485342044.79,8344,10.38,73506.8,1.45,-27.77,-26.97,0,*49
1485342046.04,8345,10.38,73508.5,1.43,-27.77,-26.97,0,*4E
1485342047.26,8346,10.38,73508.3,1.45,-27.83,-27.07,0,*48
1485342048.48,8347,10.38,73506.3,1.45,-27.83,-27.07,0,*49
1485342049.76,8348,10.38,73510.0,1.47,-27.61,-26.93,0,*44
1485342050.99,8349,10.38,73504.8,1.45,-27.55,-26.77,0,*4A
1485342052.21,8350,10.38,73506.3,1.47,-27.55,-26.87,0,*4F
1485342053.46,8351,10.38,73510.0,1.47,-27.71,-26.93,0,*4D
1485342054.71,8352,10.38,73508.3,1.45,-27.99,-27.39,0,*4B
1485342055.94,8353,10.38,73508.0,1.47,-27.77,-27.07,0,*45
1485342057.17,8354,10.38,73504.0,1.47,-27.71,-27.07,0,*44
1485342058.42,8355,10.38,73508.8,1.47,-28.25,-27.89,0,*4D
1485342059.65,8356,10.38,73508.5,1.45,-28.69,-27.99,0,*45
1485342060.87,8357,10.38,73504.3,1.45,-27.93,-27.39,0,*44
1485342062.12,8358,10.38,73506.5,1.47,-27.89,-27.39,0,*42
1485342063.38,8359,10.38,73508.5,1.45,-28.59,-27.99,0,*49
1485342064.58,8360,10.38,73508.8,1.45,-28.15,-27.67,0,*4A
1485342065.8,8361,10.31,73506.5,1.45,-27.83,-27.13,0,*48
1485342067.0,8362,10.38,73510.0,1.45,-28.31,-27.67,0,*4E
1485342068.28,8363,10.38,73508.5,1.47,-28.25,-27.61,0,*4E
1485342069.49,8364,10.38,73510.5,1.45,-27.67,-27.07,0,*42
1485342070.74,8365,10.38,73510.3,1.47,-28.59,-27.93,0,*4E
1485342071.94,8366,10.38,73510.3,1.45,-28.15,-27.67,0,*4C
1485342073.19,8367,10.38,73512.8,1.47,-27.89,-27.23,0,*45
1485342074.39,8368,10.38,73512.3,1.45,-27.67,-27.13,0,*4B
1485342075.62,8369,10.38,73508.8,1.47,-27.55,-26.87,0,*45
1485342076.86,8370,10.38,73508.5,1.45,-27.83,-27.39,0,*40
1485342078.09,8371,10.38,73508.0,1.45,-28.09,-27.55,0,*46
1485342079.29,8372,10.38,73508.0,1.45,-27.67,-27.13,0,*40
1485342080.52,8373,10.38,73512.3,1.47,-27.93,-27.51,0,*4E
1485342081.76,8374,10.38,73514.3,1.47,-27.71,-27.19,0,*49
1485342082.99,8375,10.31,73508.5,1.47,-27.51,-27.03,0,*41
1485342084.24,8376,10.38,73508.0,1.45,-27.83,-27.39,0,*46
1485342085.47,8377,10.38,73510.5,1.47,-28.37,-27.89,0,*4E
1485342086.75,8378,10.38,73506.0,1.47,-27.61,-27.23,0,*4D
1485342087.98,8379,10.38,73504.0,1.45,-27.77,-27.39,0,*42
1485342089.21,8380,10.38,73510.0,1.45,-28.09,-27.67,0,*49
1485342090.43,8381,10.38,73506.3,1.45,-28.25,-27.93,0,*4D
1485342091.68,8382,10.38,73508.0,1.47,-28.21,-27.77,0,*42
1485342092.94,8383,10.38,73508.0,1.45,-28.63,-28.63,0,*4D
1485342094.21,8384,10.38,73510.5,1.43,-30.39,-30.01,0,*47
1485342095.49,8385,10.38,73510.8,1.43,-29.01,-28.63,0,*48
1485342096.69,8386,10.38,73508.3,1.39,-27.89,-27.51,0,*46
1485342097.93,8387,10.38,73510.0,1.39,-27.83,-27.45,0,*48
1485342099.17,8388,10.38,73506.5,1.39,-27.83,-27.45,0,*47
1485342100.41,8389,10.38,73506.5,1.43,-27.67,-27.29,0,*4B
1485342101.67,8390,10.38,73510.3,1.43,-28.47,-28.43,0,*4D
1485342102.9,8391,10.31,73504.8,1.39,-29.17,-28.85,0,*4F
1485342104.13,8392,10.31,73506.0,1.39,-28.75,-28.31,0,*46
1485342105.38,8393,10.38,73508.5,1.39,-27.99,-27.61,0,*40
1485342106.59,8394,10.38,73510.0,1.39,-27.67,-27.29,0,*4A
1485342107.79,8395,10.38,73508.5,1.39,-28.15,-27.89,0,*4B
1485342109.01,8396,10.38,73508.0,1.39,-27.99,-27.71,0,*44
1485342110.24,8397,10.38,73510.0,1.39,-27.89,-27.61,0,*45
1485342111.46,8398,10.38,73510.5,1.39,-27.99,-27.71,0,*4A
1485342112.69,8399,10.38,73508.0,1.43,-27.93,-27.55,0,*4A
1485342113.89,8400,10.38,73506.8,1.39,-27.89,-27.51,0,*4F
1485342115.16,8401,10.38,73510.0,1.43,-27.99,-27.83,0,*4D
1485342116.41,8402,10.38,73508.5,1.39,-28.05,-27.83,0,*49
1485342117.68,8403,10.38,73506.3,1.43,-27.83,-27.45,0,*4E
1485342118.94,8404,10.38,73508.3,1.39,-29.39,-29.35,0,*42
1485342120.14,8405,10.38,73504.3,1.39,-28.85,-28.53,0,*44
1485342121.4,8406,10.38,73504.8,1.39,-28.75,-28.63,0,*4B
1485342122.62,8407,10.38,73508.8,1.39,-29.17,-29.07,0,*4C
1485342123.87,8408,10.38,73508.3,1.35,-28.25,-28.05,0,*4C
1485342125.09,8409,10.38,73510.0,1.37,-27.67,-27.51,0,*48
1485342126.36,8410,10.38,73504.8,1.37,-29.01,-29.01,0,*45
1485342127.58,8411,10.38,73500.3,1.35,-28.79,-28.69,0,*47
1485342128.8,8412,10.38,73508.8,1.35,-28.53,-28.43,0,*44
1485342130.03,8413,10.38,73504.8,1.35,-28.69,-28.59,0,*47
1485342131.25,8414,10.38,73506.3,1.35,-29.45,-29.39,0,*48
1485342132.49,8415,10.38,73508.3,1.33,-30.01,-29.83,0,*46
1485342133.73,8416,10.38,73510.0,1.31,-29.29,-29.13,0,*4C
1485342134.97,8417,10.38,73508.0,1.31,-29.17,-29.13,0,*40
1485342136.19,8418,10.38,73508.5,1.31,-28.47,-28.31,0,*4A
1485342137.39,8419,10.38,73510.8,1.31,-27.93,-27.71,0,*46
1485342138.64,8420,10.38,73510.0,1.33,-27.99,-27.93,0,*48
1485342139.84,8421,10.38,73508.3,1.31,-28.15,-28.15,0,*41
1485342141.06,8422,10.38,73506.8,1.31,-27.93,-27.83,0,*43
1485342142.33,8423,10.38,73502.5,1.33,-28.43,-28.43,0,*41
1485342143.58,8424,10.38,73508.8,1.31,-28.59,-28.63,0,*4D
1485342144.8,8425,10.38,73508.3,1.31,-28.31,-28.43,0,*40
1485342146.02,8426,10.38,73510.0,1.31,-28.31,-28.43,0,*43
1485342147.24,8427,10.38,73510.0,1.31,-27.99,-27.93,0,*4D
1485342148.47,8428,10.38,73508.5,1.31,-27.93,-27.99,0,*42
1485342149.67,8429,10.38,73510.3,1.31,-28.85,-28.85,0,*49
1485342150.92,8430,10.38,73508.0,1.31,-29.17,-29.17,0,*41
1485342152.17,8431,10.38,73508.5,1.31,-28.09,-28.09,0,*40
1485342153.36,8432,10.38,73506.5,1.31,-27.77,-27.71,0,*45
1485342154.64,8433,10.38,73508.5,1.29,-28.79,-28.91,0,*4D
1485342155.9,8434,10.38,73510.3,1.29,-28.63,-28.79,0,*47
1485342157.18,8435,10.38,73510.5,1.29,-28.05,-28.05,0,*4D
1485342158.44,8436,10.38,73504.3,1.29,-28.05,-28.31,0,*49
1485342159.68,8437,10.38,73504.0,1.31,-28.63,-28.79,0,*4D
1485342160.93,8438,10.38,73506.8,1.31,-28.09,-28.25,0,*47
1485342162.16,8439,10.38,73506.3,1.29,-28.69,-28.85,0,*43
1485342163.41,8440,10.38,73506.8,1.29,-28.37,-28.63,0,*4E
1485342164.67,8441,10.38,73506.8,1.29,-29.39,-29.67,0,*45
1485342165.87,8442,10.38,73508.0,1.27,-28.53,-28.69,0,*4A
1485342167.1,8443,10.38,73510.0,1.27,-28.37,-28.63,0,*43
1485342168.32,8444,10.38,73506.5,1.27,-28.21,-28.37,0,*42
1485342169.57,8445,10.38,73506.0,1.29,-28.31,-28.63,0,*4D
1485342170.79,8446,10.38,73510.5,1.29,-28.85,-29.23,0,*44
1485342172.04,8447,10.38,73508.5,1.27,-28.47,-28.63,0,*40
1485342173.29,8448,10.38,73510.8,1.29,-28.05,-28.31,0,*40
1485342174.52,8449,10.38,73504.8,1.27,-28.63,-28.85,0,*40
1485342175.77,8450,10.38,73504.3,1.29,-28.85,-29.17,0,*44
1485342176.99,8451,10.38,73510.0,1.27,-28.63,-28.69,0,*4B
1485342178.22,8452,10.38,73510.3,1.27,-28.37,-28.63,0,*43
1485342179.46,8453,10.38,73510.3,1.27,-28.47,-28.79,0,*4E
1485342180.68,8454,10.38,73508.0,1.29,-28.53,-28.85,0,*41
1485342181.95,8455,10.31,73504.8,1.25,-28.91,-29.13,0,*4C
1485342183.22,8456,10.38,73506.8,1.25,-28.91,-29.13,0,*4F
1485342184.45,8457,10.38,73506.8,1.23,-28.21,-28.53,0,*46
1485342185.7,8458,10.38,73510.5,1.23,-28.25,-28.43,0,*4C
1485342186.97,8459,10.38,73506.8,1.25,-28.59,-28.91,0,*4F
1485342188.24,8460,10.31,73506.0,1.25,-28.91,-29.13,0,*4A
1485342189.47,8461,10.38,73506.8,1.25,-28.37,-28.69,0,*4B
1485342190.69,8462,10.38,73510.3,1.23,-28.09,-28.53,0,*4A
1485342191.92,8463,10.38,73506.5,1.23,-28.09,-28.53,0,*4B
1485342193.19,8464,10.38,73510.5,1.25,-28.09,-28.43,0,*4B
1485342194.44,8465,10.38,73510.8,1.23,-28.25,-28.75,0,*47
1485342195.66,8466,10.38,73510.0,1.23,-28.37,-28.75,0,*47
1485342196.88,8467,10.38,73510.0,1.25,-27.93,-28.37,0,*47
1485342198.15,8468,10.38,73508.3,1.25,-28.21,-28.75,0,*48
1485342199.41,8469,10.38,73506.3,1.23,-28.21,-28.59,0,*41
1485342200.66,8470,10.38,73508.0,1.25,-27.93,-28.25,0,*42
1485342201.89,8471,10.38,73506.3,1.23,-27.93,-28.25,0,*45
1485342203.09,8472,10.38,73508.5,1.23,-27.89,-28.37,0,*4E
1485342204.34,8473,10.38,73506.5,1.25,-28.05,-28.53,0,*40
1485342205.61,8474,10.31,73506.8,1.25,-28.05,-28.59,0,*4D
1485342206.83,8475,10.38,73510.5,1.23,-28.59,-29.07,0,*49
1485342208.1,8476,10.38,73508.0,1.25,-28.43,-28.91,0,*49
1485342209.35,8477,10.38,73508.8,1.25,-28.85,-29.39,0,*41
1485342210.59,8478,10.38,73510.5,1.25,-28.59,-29.07,0,*42
1485342211.79,8479,10.31,73504.5,1.23,-28.53,-28.97,0,*47
1485342213.0,8480,10.38,73512.0,1.23,-28.37,-28.85,0,*40
1485342214.25,8481,10.38,73508.5,1.25,-28.37,-28.91,0,*42
1485342215.52,8482,10.38,73508.0,1.25,-28.05,-28.59,0,*44
1485342216.74,8483,10.38,73508.5,1.23,-28.59,-29.23,0,*46
1485342217.95,8484,10.38,73508.5,1.23,-29.23,-29.95,0,*40
1485342219.19,8485,10.38,73508.0,1.23,-28.25,-28.75,0,*49
1485342220.46,8486,10.38,73508.0,1.21,-28.63,-29.17,0,*4F
1485342221.71,8487,10.38,73510.3,1.21,-28.31,-28.91,0,*46
1485342222.94,8488,10.38,73510.3,1.23,-28.25,-28.85,0,*4B
1485342224.19,8489,10.38,73506.8,1.23,-29.13,-29.73,0,*46
1485342225.43,8490,10.31,73506.0,1.21,-29.17,-29.79,0,*42
1485342226.7,8491,10.38,73508.3,1.17,-28.63,-29.17,0,*4C
1485342227.93,8492,10.38,73510.0,1.17,-28.31,-28.85,0,*42
1485342229.15,8493,10.38,73508.3,1.17,-28.53,-28.97,0,*44
1485342230.39,8494,10.38,73502.5,1.21,-29.13,-29.79,0,*42
1485342231.67,8495,10.38,73504.5,1.17,-28.79,-29.39,0,*4F
1485342232.91,8496,10.38,73506.5,1.17,-28.53,-29.17,0,*48
1485342234.16,8497,10.38,73510.0,1.17,-28.69,-29.35,0,*40
1485342235.44,8498,10.38,73506.8,1.21,-28.79,-29.51,0,*49
1485342236.72,8499,10.38,73506.8,1.17,-29.35,-30.05,0,*4D
1485342237.95,8500,10.38,73506.5,1.17,-29.07,-29.67,0,*41
1485342239.17,8501,10.31,73506.8,1.13,-29.07,-29.79,0,*4B
1485342240.4,8502,10.38,73512.3,1.15,-28.63,-29.23,0,*42
1485342241.63,8503,10.38,73514.3,1.15,-28.37,-29.01,0,*42
1485342242.88,8504,10.38,73510.8,1.17,-29.23,-30.01,0,*4B
1485342244.13,8505,10.38,73508.0,1.15,-28.79,-29.39,0,*45
1485342245.37,8506,10.38,73504.8,1.13,-28.85,-29.57,0,*4B
1485342246.62,8507,10.38,73504.5,1.15,-28.63,-29.35,0,*40
1485342247.84,8508,10.31,73504.0,1.15,-28.47,-29.23,0,*4E
1485342249.12,8509,10.38,73506.8,1.13,-28.59,-29.29,0,*4C
1485342250.39,8510,10.38,73504.3,1.13,-28.75,-29.73,0,*45
1485342251.63,8511,10.38,73506.0,1.13,-28.43,-29.07,0,*42
1485342252.89,8512,10.38,73502.8,1.13,-28.85,-29.73,0,*48
1485342254.17,8513,10.38,73504.0,1.13,-28.91,-29.73,0,*4C
1485342255.42,8514,10.38,73504.8,1.13,-28.85,-29.73,0,*4E
1485342256.66,8515,10.38,73504.3,1.13,-29.57,-30.27,0,*48
1485342257.89,8516,10.38,73508.8,1.11,-29.07,-29.89,0,*40
1485342259.09,8517,10.38,73508.3,1.11,-30.45,-31.29,0,*4C
1485342260.31,8518,10.38,73506.5,1.09,-29.07,-29.95,0,*4A
1485342261.54,8519,10.38,73510.3,1.11,-28.75,-29.57,0,*48
1485342262.76,8520,10.38,73506.3,1.09,-28.97,-29.79,0,*4B
1485342264.01,8521,10.38,73506.5,1.09,-28.79,-29.45,0,*45
1485342265.24,8522,10.38,73508.3,1.09,-29.07,-29.83,0,*44
1485342266.44,8523,10.38,73504.0,1.11,-29.23,-30.11,0,*49
1485342267.66,8524,10.38,73508.8,1.09,-29.07,-29.95,0,*45
1485342268.92,8525,10.38,73510.0,1.07,-29.39,-30.27,0,*46
1485342270.17,8526,10.38,73510.3,1.09,-29.17,-30.11,0,*42
1485342271.4,8527,10.31,73504.5,1.07,-28.69,-29.67,0,*4C
1485342272.64,8528,10.38,73506.8,1.07,-28.85,-29.83,0,*4B
1485342273.86,8529,10.38,73508.0,1.07,-30.23,-31.05,0,*48
1485342275.1,8530,10.38,73508.0,1.05,-29.39,-30.23,0,*44
1485342276.33,8531,10.38,73510.3,1.05,-29.57,-30.55,0,*4C
1485342277.58,8532,10.38,73510.5,1.05,-30.01,-30.89,0,*45
1485342278.81,8533,10.38,73508.5,1.05,-30.23,-31.23,0,*45
1485342280.07,8534,10.38,73508.0,1.05,-29.51,-30.39,0,*45
1485342281.3,8535,10.38,73510.3,1.01,-29.89,-30.83,0,*44
1485342282.55,8536,10.38,73506.8,1.01,-30.51,-31.51,0,*44
1485342283.8,8537,10.38,73506.8,1.01,-29.73,-30.61,0,*4F
1485342285.03,8538,10.38,73506.0,0.99,-29.23,-30.11,0,*72
1485342286.25,8539,10.38,73506.3,0.97,-28.79,-29.79,0,*75
1485342287.5,8540,10.38,73510.8,0.99,-28.91,-29.79,0,*73
1485342288.74,8541,10.38,73510.5,0.99,-29.13,-30.11,0,*7F
1485342289.95,8542,10.38,73506.5,0.97,-29.79,-30.83,0,*75
1485342291.17,8543,10.38,73508.3,0.99,-29.23,-30.27,0,*7B
1485342292.43,8544,10.31,73504.8,0.99,-29.07,-30.17,0,*79
1485342293.68,8545,10.38,73504.8,0.99,-29.13,-30.11,0,*7B
1485342294.88,8546,10.31,73506.8,0.97,-28.97,-29.83,0,*78
1485342296.12,8547,10.38,73508.8,0.99,-28.75,-29.61,0,*77
1485342297.38,8548,10.38,73506.5,0.99,-28.79,-29.83,0,*78
1485342298.63,8549,10.38,73510.0,0.99,-29.61,-30.55,0,*72
1485342299.85,8550,10.38,73508.0,0.97,-29.45,-30.51,0,*76
1485342301.1,8551,10.38,73504.0,0.97,-30.39,-31.51,0,*75
1485342302.3,8552,10.38,73506.8,0.97,-30.27,-31.17,0,*7B
1485342303.52,8553,10.38,73510.0,0.97,-29.29,-30.27,0,*7E
1485342304.75,8554,10.38,73508.3,0.97,-29.29,-30.33,0,*7C
1485342305.94,8555,10.38,73508.0,0.97,-28.97,-29.95,0,*7D
1485342307.17,8556,10.38,73506.3,0.97,-28.79,-29.95,0,*7E
1485342308.36,8557,10.38,73508.5,0.97,-29.07,-30.11,0,*73
1485342309.56,8558,10.38,73506.3,0.97,-29.95,-31.01,0,*77
1485342310.81,8559,10.38,73508.5,0.91,-29.17,-30.23,0,*7B
1485342312.06,8560,10.38,73508.0,0.93,-29.01,-30.05,0,*70
1485342313.29,8561,10.38,73508.0,0.93,-28.85,-30.01,0,*78
1485342314.53,8562,10.38,73510.3,0.93,-29.67,-30.77,0,*77
1485342315.79,8563,10.38,73510.0,0.91,-29.67,-30.61,0,*73
1485342317.01,8564,10.38,73504.3,0.93,-29.29,-30.23,0,*7A
1485342318.26,8565,10.38,73508.0,0.93,-29.13,-30.17,0,*75
1485342319.51,8566,10.31,73504.5,0.93,-29.01,-30.05,0,*76
1485342320.77,8567,10.38,73508.0,0.93,-29.51,-30.61,0,*70
1485342322.02,8568,10.38,73508.5,0.91,-30.23,-31.23,0,*77
1485342323.27,8569,10.38,73508.0,0.91,-29.13,-30.23,0,*7C
1485342324.49,8570,10.38,73508.0,0.93,-28.97,-30.05,0,*7F
1485342325.78,8571,10.31,73504.3,0.91,-29.51,-30.61,0,*75
1485342327.04,8572,10.38,73506.5,0.91,-29.51,-30.45,0,*70
1485342328.26,8573,10.38,73510.8,0.93,-29.83,-30.95,0,*71
1485342329.5,8574,10.31,73506.0,0.93,-29.57,-30.73,0,*77
1485342330.72,8575,10.38,73504.3,0.93,-29.29,-30.33,0,*7B
1485342331.98,8576,10.38,73508.3,0.91,-28.85,-30.01,0,*7C
1485342333.26,8577,10.38,73510.3,0.91,-29.01,-30.17,0,*77
1485342334.5,8578,10.38,73508.8,0.93,-29.57,-30.73,0,*7B
1485342335.75,8579,10.38,73510.3,0.91,-29.83,-30.95,0,*79
1485342337.04,8580,10.38,73504.8,0.91,-29.51,-30.61,0,*7B
1485342338.29,8581,10.38,73504.5,0.91,-28.85,-30.01,0,*74
1485342339.55,8582,10.38,73508.0,0.93,-29.01,-30.17,0,*7F
1485342340.81,8583,10.38,73506.8,0.93,-29.39,-30.61,0,*74
1485342342.03,8584,10.38,73510.5,0.93,-29.29,-30.45,0,*74
1485342343.28,8585,10.38,73510.0,0.91,-28.97,-30.05,0,*77
1485342344.54,8586,10.38,73508.3,0.91,-29.57,-30.73,0,*78
1485342345.8,8587,10.38,73506.5,0.91,-28.97,-30.17,0,*76
1485342347.05,8588,10.38,73508.3,0.91,-29.01,-30.23,0,*70
1485342348.27,8589,10.38,73508.3,0.93,-28.97,-30.05,0,*79
1485342349.49,8590,10.38,73510.0,0.93,-29.13,-30.23,0,*78
1485342350.74,8591,10.38,73510.8,0.91,-29.17,-30.33,0,*7E
1485342351.97,8592,10.38,73508.5,0.93,-28.63,-29.67,0,*74
1485342353.2,8593,10.31,73506.5,0.93,-28.63,-29.83,0,*7F
1485342354.42,8594,10.38,73508.0,0.97,-29.13,-30.27,0,*7C
1485342355.64,8595,10.38,73508.5,0.93,-29.13,-30.23,0,*7D
1485342356.86,8596,10.38,73512.3,0.93,-29.17,-30.23,0,*7A
1485342358.12,8597,10.38,73512.5,0.97,-29.51,-30.73,0,*78
1485342359.32,8598,10.38,73510.3,0.97,-28.97,-30.11,0,*78
1485342360.56,8599,10.38,73508.8,0.97,-29.29,-30.51,0,*79
1485342361.76,8600,10.38,73506.5,0.97,-28.97,-30.11,0,*7A
1485342363.01,8601,10.38,73508.5,0.99,-28.91,-30.11,0,*73
1485342364.26,8602,10.38,73508.3,0.97,-29.35,-30.39,0,*7B
1485342365.52,8603,10.38,73508.0,0.99,-28.59,-29.83,0,*76
1485342366.77,8604,10.38,73510.8,0.99,-28.63,-29.83,0,*78
1485342368.02,8605,10.38,73508.5,0.99,-28.63,-29.95,0,*7E
1485342369.27,8606,10.38,73510.5,0.99,-28.75,-29.95,0,*7A
1485342370.47,8607,10.38,73512.0,1.01,-28.85,-30.11,0,*40
1485342371.72,8608,10.38,73514.5,1.01,-29.29,-30.51,0,*4C
1485342372.95,8609,10.38,73510.5,1.01,-29.45,-30.61,0,*44
1485342374.18,8610,10.38,73510.8,1.01,-28.85,-30.05,0,*43
1485342375.41,8611,10.31,73508.5,1.01,-28.91,-30.11,0,*42
1485342376.61,8612,10.38,73508.8,1.01,-28.85,-30.11,0,*44
1485342377.86,8613,10.38,73512.0,1.01,-29.29,-30.51,0,*46
1485342379.09,8614,10.38,73514.8,1.01,-29.01,-30.33,0,*4F
1485342380.29,8615,10.38,73512.8,1.01,-30.23,-31.45,0,*46
1485342381.51,8616,10.38,73510.0,1.01,-30.61,-32.01,0,*40
1485342382.75,8617,10.38,73512.0,1.01,-30.61,-31.85,0,*4E
1485342383.97,8618,10.38,73510.3,0.99,-32.57,-33.95,0,*75
1485342385.2,8619,10.38,73508.3,0.97,-32.57,-33.89,0,*77
1485342386.45,8620,10.38,73512.3,0.91,-31.57,-32.91,0,*70
1485342387.73,8621,10.38,73508.8,0.91,-31.11,-32.45,0,*7A
1485342388.96,8622,10.38,73510.8,0.89,-32.69,-34.01,0,*7A
1485342390.21,8623,10.38,73512.0,0.87,-31.73,-33.37,0,*7F
1485342391.42,8624,10.38,73510.3,0.85,-31.05,-32.29,0,*75
1485342392.7,8625,10.38,73506.5,0.83,-31.11,-32.45,0,*7D
1485342393.98,8626,10.38,73506.3,0.83,-31.39,-32.79,0,*7B
1485342395.23,8627,10.38,73508.5,0.83,-32.85,-34.71,0,*70
1485342396.5,8628,10.38,73504.5,0.79,-34.01,-35.53,0,*71
1485342397.74,8629,10.38,73508.0,0.73,-33.73,-35.41,0,*7B
1485342398.96,8630,10.38,73506.8,0.69,-34.35,-36.01,0,*7A
1485342400.16,8631,10.38,73508.0,0.65,-35.41,-37.03,0,*76
1485342401.38,8632,10.38,73506.0,0.59,-34.89,-36.67,0,*7C
1485342402.57,8633,10.38,73502.3,0.57,-35.41,-36.97,0,*79
1485342403.81,8634,10.38,73498.8,0.55,-34.53,-36.19,0,*78
1485342405.05,8635,10.38,73496.3,0.53,-33.31,-34.95,0,*7A
1485342406.31,8636,10.38,73500.0,0.47,-33.61,-35.35,0,*72
1485342407.52,8637,10.38,73498.3,0.45,-32.85,-34.41,0,*78
1485342408.76,8638,10.38,73500.0,0.45,-31.95,-33.31,0,*75
1485342410.0,8639,10.38,73498.8,0.45,-31.95,-33.61,0,*71
1485342411.2,8640,10.38,73502.0,0.43,-31.51,-32.91,0,*7F
1485342412.44,8641,10.38,73502.3,0.43,-30.89,-32.29,0,*79
1485342413.64,8642,10.38,73502.8,0.43,-30.45,-31.85,0,*7F
1485342414.85,8643,10.38,73502.3,0.43,-31.33,-32.85,0,*7D
1485342416.11,8644,10.38,73502.8,0.41,-31.95,-33.43,0,*7F
1485342417.38,8645,10.38,73502.8,0.41,-31.61,-33.09,0,*7B
1485342418.64,8646,10.38,73502.8,0.41,-31.85,-33.43,0,*7C
1485342419.9,8647,10.38,73504.0,0.41,-32.19,-33.77,0,*7C
1485342421.14,8648,10.38,73504.8,0.41,-31.61,-32.91,0,*76
1485342422.37,8649,10.38,73502.8,0.41,-30.89,-32.35,0,*7E
1485342423.57,8650,10.38,73502.8,0.41,-31.05,-32.39,0,*7F
1485342424.81,8651,10.38,73504.5,0.41,-31.11,-32.39,0,*7B
1485342426.01,8652,10.38,73502.0,0.41,-30.45,-31.79,0,*7F
1485342427.22,8653,10.38,73506.8,0.39,-30.95,-32.23,0,*70
1485342428.44,8654,10.38,73510.5,0.41,-31.17,-32.69,0,*7D
1485342429.67,8655,10.31,73504.5,0.41,-32.39,-34.01,0,*7B
1485342430.91,8656,10.38,73504.5,0.39,-31.11,-32.45,0,*78
1485342432.12,8657,10.38,73502.5,0.39,-30.27,-31.57,0,*7D
1485342433.33,8658,10.38,73498.8,0.39,-31.11,-32.57,0,*75
1485342434.51,8659,10.38,73504.5,0.39,-30.33,-31.67,0,*75
1485342435.73,8660,10.38,73504.8,0.39,-30.67,-32.07,0,*7B
1485342436.97,8661,10.38,73508.0,0.39,-30.61,-32.07,0,*7C
1485342438.2,8662,10.38,73504.3,0.41,-30.73,-32.01,0,*75
1485342439.42,8663,10.38,73506.5,0.41,-30.55,-32.01,0,*70
1485342440.68,8664,10.38,73504.5,0.41,-30.89,-32.29,0,*7C
1485342441.94,8665,10.38,73510.0,0.41,-31.61,-33.09,0,*79
1485342443.2,8666,10.38,73504.5,0.41,-30.77,-32.19,0,*7C
1485342444.45,8667,10.38,73504.8,0.41,-30.89,-32.29,0,*7F
1485342445.69,8668,10.38,73504.8,0.41,-30.89,-32.39,0,*71
1485342446.92,8669,10.38,73508.0,0.41,-30.61,-32.13,0,*7E
1485342448.14,8670,10.38,73504.0,0.41,-30.45,-31.95,0,*7D
1485342449.39,8671,10.38,73506.3,0.41,-31.11,-32.39,0,*79
1485342450.61,8672,10.38,73504.0,0.41,-30.45,-31.85,0,*7E
1485342451.87,8673,10.38,73510.5,0.41,-30.01,-31.51,0,*76
1485342453.13,8674,10.38,73506.0,0.41,-30.77,-32.19,0,*7F
1485342454.33,8675,10.31,73504.8,0.43,-30.39,-31.79,0,*73
1485342455.56,8676,10.38,73504.8,0.41,-30.45,-31.95,0,*7B
1485342456.81,8677,10.38,73510.8,0.41,-30.61,-32.19,0,*7B
1485342458.05,8678,10.38,73510.8,0.43,-30.73,-32.19,0,*75
1485342459.28,8679,10.38,73510.3,0.43,-30.39,-31.61,0,*76
1485342460.49,8680,10.38,73510.8,0.43,-30.95,-32.39,0,*78
1485342461.7,8681,10.38,73506.5,0.43,-31.51,-32.91,0,*72
1485342462.91,8682,10.38,73504.5,0.43,-30.95,-32.35,0,*76
1485342464.16,8683,10.38,73506.3,0.41,-30.89,-32.29,0,*75
1485342465.39,8684,10.38,73506.3,0.41,-30.45,-31.95,0,*76
1485342466.58,8685,10.38,73512.8,0.43,-30.27,-31.79,0,*73
1485342467.8,8686,10.38,73506.5,0.43,-30.39,-31.85,0,*7C
1485342468.99,8687,10.38,73506.8,0.43,-31.45,-32.91,0,*71
1485342470.2,8688,10.38,73510.3,0.43,-30.73,-32.13,0,*70
1485342471.43,8689,10.38,73506.5,0.41,-30.61,-32.13,0,*70
1485342472.66,8690,10.38,73508.8,0.45,-30.17,-31.57,0,*7E
1485342473.9,8691,10.38,73506.3,0.45,-30.39,-31.95,0,*7D
1485342475.11,8692,10.38,73508.8,0.43,-30.27,-31.61,0,*7C
1485342476.34,8693,10.38,73506.3,0.45,-30.55,-31.95,0,*75
1485342477.58,8694,10.38,73508.8,0.45,-30.73,-32.29,0,*72
1485342478.8,8695,10.38,73508.8,0.45,-31.91,-33.37,0,*70
1485342480.03,8696,10.38,73506.3,0.45,-31.39,-32.79,0,*7A
1485342481.22,8697,10.38,73510.3,0.43,-31.05,-32.39,0,*76
1485342482.45,8698,10.38,73510.0,0.45,-30.55,-32.07,0,*76
1485342483.69,8699,10.38,73512.0,0.41,-31.29,-32.75,0,*7C
1485342484.88,8700,10.38,73514.8,0.43,-31.17,-32.69,0,*7F
1485342486.09,8701,10.38,73510.5,0.43,-31.51,-33.21,0,*71
1485342487.34,8702,10.38,73508.3,0.41,-32.19,-33.77,0,*7C
1485342488.61,8703,10.38,73510.8,0.41,-31.85,-33.27,0,*7E
1485342489.86,8704,10.38,73510.0,0.41,-30.95,-32.29,0,*76
1485342491.09,8705,10.38,73506.8,0.43,-30.55,-31.95,0,*7D
1485342492.33,8706,10.38,73510.8,0.43,-30.77,-32.19,0,*79
1485342493.54,8707,10.38,73508.0,0.43,-30.95,-32.35,0,*7A
1485342494.74,8708,10.38,73508.8,0.43,-30.45,-31.85,0,*70
1485342495.97,8709,10.38,73510.3,0.45,-30.55,-31.95,0,*77
1485342497.16,8710,10.38,73508.8,0.43,-31.05,-32.39,0,*78
1485342498.36,8711,10.38,73506.8,0.43,-31.51,-33.03,0,*70
1485342499.59,8712,10.38,73506.0,0.45,-31.11,-32.51,0,*77
1485342500.82,8713,10.38,73508.8,0.45,-30.55,-32.07,0,*74
1485342502.05,8714,10.38,73506.8,0.43,-30.39,-31.85,0,*76
1485342503.28,8715,10.38,73508.8,0.45,-30.55,-31.91,0,*7E
1485342504.49,8716,10.38,73510.0,0.45,-31.01,-32.29,0,*7D
1485342505.7,8717,10.38,73508.8,0.45,-30.73,-32.13,0,*71
1485342506.93,8718,10.38,73512.0,0.45,-30.55,-31.95,0,*77
1485342508.14,8719,10.38,73514.8,0.45,-31.01,-32.45,0,*78
1485342509.37,8720,10.38,73506.8,0.47,-31.01,-32.29,0,*7A
1485342510.56,8721,10.38,73508.3,0.45,-30.83,-32.23,0,*78